Regional Weather Roundup
Issued by NWS

Home | Current Version | Previous Version | Text Only | Print | Product List | Glossary On
Versions: 1 2 3 4 5 6 7 8 9 10 11 12 13 14 15 16 17 18 19 20 21 22 23 24 25 26 27 28 29 30 31 32 33 34 35 36 37 38 39 40 41 42 43 44 45 46 47 48 49 50
000
ASUS43 KDTX 190301
RWRMI
MICHIGAN HOURLY REGIONAL WEATHER ROUNDUP
NATIONAL WEATHER SERVICE DETROIT/PONTIAC MI
1000 PM EST SAT FEB 18 2017

NOTE: "FAIR" INDICATES FEW OR NO CLOUDS BELOW 12,000 FEET WITH NO
SIGNIFICANT WEATHER AND/OR OBSTRUCTION TO VISIBILITY.

MIZ047>049-052>055-059>063-066>070-074>076-081>083-190400-
SOUTHEAST LOWER MICHIGAN

CITY           SKY/WX    TMP DP  RH WIND       PRES   REMARKS
ADRIAN         CLEAR     51  40  65 W7        29.78R
ALMA           CLEAR     44  35  71 SW5       29.75S
ANN ARBOR      CLEAR     39  35  86 W7        29.76R WCI  34
BAD AXE        CLEAR     42  36  77 W6        29.72R
CARO           CLEAR     44  36  73 W5        29.73R
DETROIT CITY   CLEAR     54  38  54 W6        29.75R
DETROIT        CLEAR     50  37  61 SW6       29.77R
FLINT          CLEAR     46  36  68 SW8       29.76R
GROSSE ILE     CLEAR     52  40  63 W3        29.75R
HILLSDALE      CLEAR     45  36  70 W5        29.78R
HOWELL         CLEAR     48  35  60 W7        29.77R

CITY           SKY/WX    TMP DP  RH WIND       PRES   REMARKS
JACKSON        CLEAR     45  35  68 W3        29.78R
LAMBERTVILLE   CLEAR     50  40  68 W3        29.78R
LANSING        CLEAR     47  35  63 W9        29.78R
LAPEER         FAIR      47  37  67 W5        29.75R
MASON          CLEAR     47  36  65 W5        29.78R
MONROE         CLEAR     49  41  73 SW5       29.76R
MT. CLEMENS    CLEAR     52  37  56 W8        29.72R
PONTIAC        CLEAR     48  35  60 W8        29.75R
PORT HOPE        N/A     47  36  65 W7        29.69R
PORT HURON     CLEAR     50  37  62 W3        29.74R
TRI CITIES     CLEAR     44  37  76 W10       29.74R
MIDLAND        FAIR      46  35  64 W5        29.73R
TROY           CLEAR     55  32  43 W6        29.77R
SAGINAW HB     CLEAR     46  34  61 W8        29.73S
$$
MIZ043>046-050>051-056>058-064>065-071>073-077>080-190400-
SOUTHWEST LOWER MICHIGAN

CITY           SKY/WX    TMP DP  RH WIND       PRES   REMARKS
BATTLE CREEK   CLEAR     43  34  70 W5        29.80R
BENTON HARBOR  CLEAR     38  32  79 CALM      29.80R
BIG RAPIDS     CLEAR     38  33  82 CALM      29.75R
COLDWATER      CLEAR     42  35  75 W3        29.80R
FREMONT        FAIR      37  34  89 SW3       29.77R
HOLLAND        CLEAR     38  33  82 SW3       29.79S
GRAND RAPIDS   CLEAR     39  33  79 S5        29.78R
IONIA          FAIR      38  33  80 SW6       29.77S WCI  34
KALAMAZOO      CLEAR     42  32  67 CALM      29.80R
LUDINGTON      CLEAR     42  36  78 W3        29.76R
MARSHALL       CLEAR     44  33  64 W5        29.79R
MOUNT PLEASANT CLEAR     44  35  72 W6        29.74R
MUSKEGON       PTCLDY    34  31  88 VRB3      29.79R
SOUTH HAVEN    CLEAR     35  32  88 CALM      29.79S
$$
MIZ016>042-190400-
NORTHERN LOWER MICHIGAN

CITY           SKY/WX    TMP DP  RH WIND       PRES   REMARKS
ALPENA         CLEAR     36  31  82 SW3       29.70R
BEAVER ISLAND  CLEAR     33  32  97 SW6       29.70R WCI  27
BELLAIRE       CLEAR     32  31  95 CALM      29.73R
CADILLAC       CLEAR     35  32  88 CALM      29.73S
CHARLEVOIX     CLEAR     41  35  79 SW10      29.73R
FRANKFORT      CLEAR     41  36  81 CALM      29.75R
GAYLORD        CLEAR     40  31  70 W5        29.71R
GRAYLING       CLEAR     42  34  75 CALM      29.72S
HARBOR SPRINGS CLEAR     36  34  91 CALM      29.71R
HOUGHTON LAKE  CLEAR     38  31  76 W5        29.73S WCI  34
MANISTEE       CLEAR     30  28  92 E3        29.76R
OSCODA         CLEAR     41  32  70 CALM      29.69R
PELLSTON       CLEAR     35  32  88 CALM      29.70R
ROGERS CITY    CLEAR     42  33  71 W6        29.70R
TRAVERSE CITY  CLEAR     45  36  70 CALM      29.71R
$$
MIZ007>008-015-190400-
EASTERN UPPER MICHIGAN

CITY           SKY/WX    TMP DP  RH WIND       PRES   REMARKS
KINROSS        CLEAR     40  32  73 SW3       29.67R
MACKINAC ISLAN CLEAR     36  34  94 SW10      29.68R WCI  28
NEWBERRY       CLEAR     38  32  77 W9        29.67R WCI  32
S. S. MARIE    CLEAR     39  31  72 W7        29.65S WCI  34
MUNISING         N/A     33  29  85 S8        29.68R WCI  26
$$
MIZ004>006-011>014-085-190400-
CENTRAL UPPER MICHIGAN

CITY           SKY/WX    TMP DP  RH WIND       PRES   REMARKS
MANISTIQUE     CLEAR     31  30  96 W3        29.70R
ESCANABA       CLEAR     33  23  66 CALM      29.72R
MENOMINEE      CLOUDY    45  29  53 W5        29.75R
SAWYER-GWINN   CLEAR     45  30  57 W9        29.70R
$$
MIZ001>003-009>011-084-190400-
WESTERN UPPER MICHIGAN

CITY           SKY/WX    TMP DP  RH WIND       PRES   REMARKS
IRON MOUNTAIN  PTCLDY    46  25  43 W6        29.73R
HOUGHTON       PTCLDY    45  30  55 W22       29.66R
COPPER HARBOR    N/A     48  31  51 NW8       29.64R
IRONWOOD       CLOUDY    45  29  53 W12       29.76R
$$

ABBREVIATIONS USED IN REMARKS
   TC - TEMPERATURE IN CELSIUS
  WCI - WIND CHILL INDEX
   HX - HEAT INDEX
  VSB - VISIBILITY





USA.gov is the U.S. government's official web portal to all federal, state and local government web resources and services.